User: anonymous   Login
Location: Rancho Del Sol Observatory
(38.7214°N, 120.6350°W)
Time: 14:21:47
(UTC-07:00)
Language:

Cosmos 2221 Rocket - Orbit

View from above orbital plane
View from above orbital plane
View from above satellite
View from above satellite

Ground track
Ground track

The orbit data is extracted from the following two-line orbital elements,

1 22237U 92080B   15214.88643404  .00000152  00000-0  17858-4 0  9996
2 22237 082.5105 034.2185 0018293 284.1061 190.4254 14.78163513222344
Epoch (UTC): 02 August 2015 21:16:27
Eccentricity: 0.0018293
inclination: 82.5105°
perigee height: 622 km
apogee height: 648 km
right ascension of ascending node: 34.2185°
argument of perigee: 284.1061°
revolutions per day: 14.78163513
mean anomaly at epoch: 190.4254°
orbit number at epoch: 22234

The dashed part of the orbit path shows where the satellite is in the earth's shadow,  

DLR